This demonstration page uses our WeatherBlox Daily Observations layout. Learn more.

Left ArrowRight Arrow

30.00354, -91.81873

Hourly Observations for September 21, 2022

Temp ( °F °C ) Dew Point ( °F °C ) Humidity (%) Winds ( mph kmh ) Pressure ( in mb ) Visibility ( mi km ) Precip ( " mm )
12:53 am 00:53 Clear 73 22.8 69 20.6 87 87 Calm 29.98 1015 7 11 0.00 0.00
4:53 am 04:53 Clear 72 22.2 67 19.4 84 84 NNE 3 6 29.97 1015 8 13 0.00 0.00
5:53 am 05:53 Clear 72 22.2 68 20 87 87 N 5 7 29.98 1015 8 13 0.00 0.00
6:53 am 06:53 Clear 71 21.7 67 19.4 87 87 N 5 7 30.00 1016 9 14 0.00 0.00
7:53 am 07:53 Sunny 74 23.3 68 20 82 82 N 5 7 30.01 1016 9 14 0.00 0.00
8:53 am 08:53 Sunny 79 26.1 69 20.6 72 72 N 5 7 30.02 1017 10 16 0.00 0.00
9:53 am 09:53 Sunny 84 28.9 70 21.1 63 63 NNE 7 11 30.02 1017 10 16 0.00 0.00
10:53 am 10:53 Sunny 88 31.1 70 21.1 55 55 NE 7 11 30.02 1017 10 16 0.00 0.00
11:53 am 11:53 Sunny 90 32.2 70 21.1 52 52 VRB 6 9 30.00 1016 10 16 0.00 0.00
12:53 pm 12:53 Sunny 92 33.3 69 20.6 47 47 E 5 7 29.98 1015 10 16 0.00 0.00
1:53 pm 13:53 Sunny 94 34.4 70 21.1 46 46 N 8 13 29.95 1014 10 16 0.00 0.00
2:53 pm 14:53 Mostly Sunny 95 35 70 21.1 45 45 NNE 7 11 29.93 1014 10 16 0.00 0.00
3:53 pm 15:53 Sunny 95 35 70 21.1 45 45 NNE 12 19 29.92 1013 10 16 0.00 0.00
4:53 pm 16:53 Sunny 95 35 69 20.6 43 43 NE 7 11 29.91 1013 10 16 0.00 0.00
5:53 pm 17:53 Sunny 93 33.9 70 21.1 47 47 NNE 5 7 29.91 1013 10 16 0.00 0.00
6:53 pm 18:53 Sunny 88 31.1 71 21.7 57 57 N 5 7 29.91 1013 10 16 0.00 0.00
7:53 pm 19:53 Clear 83 28.3 74 23.3 74 74 Calm 29.91 1013 10 16 0.00 0.00
8:53 pm 20:53 Clear 80 26.7 73 22.8 79 79 Calm 29.93 1013 10 16 0.00 0.00
9:53 pm 21:53 Clear 80 26.7 73 22.8 79 79 NW 3 6 29.94 1014 10 16 0.00 0.00
10:53 pm 22:53 Clear 78 25.6 73 22.8 85 85 Calm 29.95 1014 10 16 0.00 0.00
11:53 pm 23:53 Clear 78 25.6 73 22.8 85 85 Calm 29.94 1014 10 16 0.00 0.00

Powered by AerisWeather